CW0133 Weather Reports


time (UTC)temp
C
wind
direction
speed
KPH
gust
KPH
rain 1hr
cm
rain 24hr
cm
rain mn
cm
humidity
%
barometer
mb
20240222102004 18 185 8.0 17.7 0.00 0.00 0.00 84 1013.7
20240222101524 18 177 6.4 17.7 0.00 0.00 0.00 84 1013.5
20240222101004 18 179 6.4 12.9 0.00 0.00 0.00 84 1013.8
20240222100525 18 201 6.4 12.9 0.00 0.00 0.00 84 1013.7
20240222100025 18 202 6.4 12.9 0.00 0.00 0.00 84 1013.8
20240222095503 18 188 6.4 12.9 0.00 0.00 0.00 84 1013.5
20240222095004 18 188 6.4 16.1 0.00 0.00 0.00 84 1013.9
20240222094503 18 200 8.0 19.3 0.00 0.00 0.00 84 1013.7
20240222094003 18 208 9.7 19.3 0.00 0.00 0.00 84 1013.3
20240222093504 18 194 8.0 17.7 0.00 0.00 0.00 84 1013.6
20240222093003 18 175 9.7 27.4 0.00 0.00 0.00 84 1013.4
20240222092524 18 169 11.3 27.4 0.00 0.00 0.00 84 1013.0
20240222092003 18 167 12.9 27.4 0.00 0.00 0.00 84 1012.9
20240222091504 18 169 12.9 27.4 0.00 0.00 0.00 84 1012.8
20240222091003 18 168 12.9 27.4 0.00 0.00 0.00 84 1012.7
20240222090503 18 171 12.9 27.4 0.00 0.00 0.00 83 1012.8
20240222090003 18 168 12.9 27.4 0.00 0.00 0.00 84 1012.8
20240222085524 18 166 16.1 32.2 0.00 0.00 0.00 84 1012.9
20240222085003 18 172 16.1 32.2 0.00 0.00 0.00 83 1012.8
20240222084504 18 174 17.7 37.0 0.00 0.00 0.00 83 1012.9
20240222084003 18 171 16.1 37.0 0.00 0.00 0.00 83 1013.0
20240222083504 18 164 16.1 29.0 0.00 0.00 0.00 83 1013.1
20240222083003 18 161 16.1 29.0 0.00 0.00 0.00 83 1013.1
20240222082504 18 159 16.1 32.2 0.00 0.00 0.00 83 1013.2
20240222082003 18 161 17.7 32.2 0.00 0.00 0.00 83 1013.1
20240222081503 18 161 17.7 32.2 0.00 0.00 0.00 83 1013.2
20240222081004 18 162 19.3 37.0 0.00 0.00 0.00 83 1013.3
20240222080503 18 166 17.7 37.0 0.00 0.00 0.00 83 1013.3
20240222080024 18 167 17.7 32.2 0.00 0.00 0.00 83 1013.4
20240222075503 18 165 17.7 32.2 0.00 0.00 0.00 83 1013.4
20240222075024 18 164 16.1 32.2 0.00 0.00 0.00 84 1013.4
20240222074524 18 168 17.7 45.1 0.00 0.00 0.00 83 1013.3
20240222074004 18 165 19.3 45.1 0.00 0.00 0.00 84 1013.2
20240222073503 18 162 19.3 37.0 0.00 0.00 0.00 84 1013.2
20240222073003 18 159 17.7 37.0 0.00 0.00 0.00 84 1013.3
20240222072503 18 160 20.9 41.8 0.00 0.00 0.00 84 1013.3
20240222072003 18 166 19.3 41.8 0.00 0.00 0.00 84 1013.5
20240222071503 18 165 17.7 27.4 0.00 0.00 0.00 84 1013.7
20240222071003 18 165 19.3 37.0 0.00 0.00 0.00 84 1013.5
20240222070524 18 167 19.3 37.0 0.00 0.00 0.00 85 1013.6
20240222070003 18 166 17.7 40.2 0.00 0.00 0.00 85 1013.8
20240222065503 18 164 19.3 40.2 0.00 0.00 0.00 85 1013.6
20240222065024 18 163 19.3 35.4 0.00 0.00 0.00 85 1013.7
20240222064503 18 166 19.3 35.4 0.00 0.00 0.00 86 1013.8
20240222064004 18 168 17.7 32.2 0.00 0.00 0.00 86 1013.8
20240222063503 18 165 17.7 32.2 0.00 0.00 0.00 86 1013.8
20240222063003 18 165 16.1 29.0 0.00 0.00 0.00 86 1014.0
20240222062525 18 165 11.3 27.4 0.00 0.00 0.00 86 1014.0
20240222062003 18 164 12.9 40.2 0.00 0.00 0.00 86 1014.2
20240222061503 18 161 16.1 40.2 0.00 0.00 0.00 86 1014.5
20240222061003 18 158 17.7 37.0 0.00 0.00 0.00 86 1014.5
20240222060503 18 163 17.7 37.0 0.00 0.00 0.00 86 1014.5
20240222060003 18 161 17.7 40.2 0.00 0.00 0.00 86 1014.4
20240222055524 18 162 17.7 40.2 0.00 0.00 0.00 86 1014.4
20240222055003 18 164 17.7 35.4 0.00 0.00 0.00 86 1014.6
20240222054503 18 161 16.1 35.4 0.00 0.00 0.00 86 1014.7
20240222054003 18 159 17.7 35.4 0.00 0.00 0.00 85 1014.8
20240222053503 18 156 19.3 40.2 0.00 0.00 0.00 85 1014.8
20240222053003 18 162 20.9 41.8 0.00 0.00 0.00 85 1014.8
20240222052503 18 162 22.5 45.1 0.00 0.00 0.00 85 1014.9
20240222052003 18 159 22.5 51.5 0.00 0.00 0.00 85 1014.9
20240222051503 18 161 19.3 51.5 0.00 0.00 0.00 85 1015.0
20240222051003 18 164 16.1 41.8 0.00 0.00 0.00 85 1015.0
20240222050503 18 163 17.7 32.2 0.00 0.00 0.00 85 1014.8
20240222050024 18 159 17.7 40.2 0.00 0.00 0.00 85 1014.7
20240222045503 18 159 19.3 45.1 0.00 0.00 0.00 85 1014.7
20240222045003 18 160 20.9 45.1 0.00 0.00 0.00 85 1014.7
20240222044524 18 159 19.3 40.2 0.00 0.00 0.00 85 1014.8
20240222044003 18 165 20.9 48.3 0.00 0.00 0.00 85 1014.8
20240222043503 18 166 19.3 48.3 0.00 0.00 0.00 85 1014.8
20240222043003 18 159 19.3 37.0 0.00 0.00 0.00 85 1014.9
20240222042503 18 158 22.5 45.1 0.00 0.00 0.00 85 1014.8
20240222042003 18 158 22.5 46.7 0.00 0.00 0.00 85 1014.8
20240222041503 18 157 20.9 46.7 0.00 0.00 0.00 85 1014.8
20240222040503 18 158 22.5 46.7 0.00 0.00 0.00 85 1014.8
20240222040003 18 157 20.9 41.8 0.00 0.00 0.00 85 1014.7
20240222035503 18 157 20.9 41.8 0.00 0.00 0.00 85 1014.8
20240222035024 18 159 19.3 41.8 0.00 0.00 0.00 85 1014.9
20240222034503 18 157 19.3 41.8 0.00 0.00 0.00 85 1014.9
20240222034003 18 154 19.3 41.8 0.00 0.00 0.00 85 1014.9
20240222033503 18 155 17.7 41.8 0.00 0.00 0.00 84 1014.9
20240222033025 18 155 16.1 32.2 0.00 0.00 0.00 84 1015.0
20240222032503 18 159 16.1 30.6 0.00 0.00 0.00 84 1015.1
20240222032003 18 156 17.7 30.6 0.00 0.00 0.00 84 1015.1
20240222031503 18 154 16.1 30.6 0.00 0.00 0.00 84 1015.0
20240222031024 18 150 12.9 30.6 0.00 0.00 0.00 84 1015.0
20240222030503 18 152 16.1 37.0 0.00 0.00 0.00 83 1015.0
20240222030024 18 156 16.1 37.0 0.00 0.00 0.00 83 1014.9
20240222025503 19 149 16.1 30.6 0.00 0.00 0.00 82 1014.8
20240222025003 19 150 19.3 38.6 0.00 0.00 0.00 82 1014.5
20240222024503 19 149 20.9 41.8 0.00 0.00 0.00 81 1014.2
20240222024003 19 144 20.9 41.8 0.00 0.00 0.00 81 1014.1
20240222023524 19 148 19.3 37.0 0.00 0.00 0.00 80 1014.0
20240222023003 19 147 20.9 38.6 0.00 0.00 0.00 79 1014.1
20240222022503 20 141 20.9 46.7 0.00 0.00 0.00 79 1014.0
20240222022003 20 142 19.3 46.7 0.00 0.00 0.00 78 1014.1
20240222021503 20 144 17.7 41.8 0.00 0.00 0.00 77 1014.2
20240222021003 20 145 17.7 41.8 0.00 0.00 0.00 77 1014.2
20240222020503 20 143 17.7 29.0 0.00 0.00 0.00 77 1014.3
20240222020003 20 140 17.7 32.2 0.00 0.00 0.00 76 1014.2
20240222015503 20 134 17.7 45.1 0.00 0.00 0.00 75 1014.2
20240222015024 20 134 17.7 45.1 0.00 0.00 0.00 75 1014.0
20240222014524 20 142 17.7 40.2 0.00 0.00 0.00 75 1014.0
20240222014003 21 143 19.3 40.2 0.00 0.00 0.00 74 1014.1
20240222013503 21 140 17.7 40.2 0.00 0.00 0.00 74 1014.2
20240222013003 21 134 17.7 40.2 0.00 0.00 0.00 73 1014.3
20240222012503 21 134 16.1 30.6 0.00 0.00 0.00 73 1014.3
20240222012003 21 135 16.1 30.6 0.00 0.00 0.00 72 1014.3
20240222011503 21 138 17.7 35.4 0.00 0.00 0.00 72 1014.4
20240222011003 21 140 17.7 37.0 0.00 0.00 0.00 71 1014.5
20240222010503 21 137 16.1 37.0 0.00 0.00 0.00 71 1014.6
20240222010024 21 138 16.1 29.0 0.00 0.00 0.00 71 1014.6
20240222005503 22 137 16.1 29.0 0.00 0.00 0.00 71 1014.8
20240222005004 22 136 16.1 27.4 0.00 0.00 0.00 71 1014.8
20240222004504 22 132 12.9 27.4 0.00 0.00 0.00 70 1015.0
20240222004004 22 131 12.9 29.0 0.00 0.00 0.00 70 1015.1
20240222003525 22 131 12.9 29.0 0.00 0.00 0.00 69 1015.2
20240222003004 22 132 12.9 27.4 0.00 0.00 0.00 68 1015.3
20240222002504 23 137 16.1 30.6 0.00 0.00 0.00 66 1015.2
20240222002004 23 142 12.9 30.6 0.00 0.00 0.00 66 1015.3
20240222001504 23 144 16.1 29.0 0.00 0.00 0.00 65 1015.3
20240222001004 23 143 12.9 25.7 0.00 0.00 0.00 65 1015.4
20240222000504 23 136 12.9 29.0 0.00 0.00 0.00 65 1015.3
20240222000004 23 139 16.1 29.0 0.00 0.00 0.00 65 1015.3
20240221235504 23 146 16.1 27.4 0.00 0.00 0.00 64 1015.5
20240221235004 24 146 16.1 32.2 0.00 0.00 0.00 64 1015.5
20240221234504 24 147 17.7 32.2 0.00 0.00 0.00 63 1015.5
20240221234004 24 138 17.7 32.2 0.00 0.00 0.00 64 1015.4
20240221233504 24 139 17.7 30.6 0.00 0.00 0.00 63 1015.3
20240221233004 25 149 16.1 30.6 0.00 0.00 0.00 62 1015.2
20240221232525 25 152 16.1 29.0 0.00 0.00 0.00 62 1015.2
20240221232004 25 147 17.7 30.6 0.00 0.00 0.00 61 1015.0
20240221231504 25 138 16.1 27.4 0.00 0.00 0.00 61 1015.0
20240221231004 25 134 17.7 32.2 0.00 0.00 0.00 61 1015.0
20240221230504 25 138 16.1 32.2 0.00 0.00 0.00 61 1015.1
20240221230025 25 138 16.1 27.4 0.00 0.00 0.00 60 1015.1
20240221225525 25 149 19.3 38.6 0.00 0.00 0.00 60 1015.2
20240221225004 25 154 17.7 38.6 0.00 0.00 0.00 59 1015.2
20240221224504 25 153 12.9 32.2 0.00 0.00 0.00 60 1015.3
20240221224004 25 144 16.1 29.0 0.00 0.00 0.00 61 1015.3
20240221223504 25 129 12.9 29.0 0.00 0.00 0.00 62 1015.3
20240221223004 25 141 16.1 32.2 0.00 0.00 0.00 62 1015.4
20240221222504 25 149 17.7 32.2 0.00 0.00 0.00 63 1015.5
20240221222004 25 153 17.7 32.2 0.00 0.00 0.00 63 1015.6
20240221221525 25 161 17.7 32.2 0.00 0.00 0.00 63 1015.8
20240221221025 25 152 16.1 30.6 0.00 0.00 0.00 63 1015.8
20240221220504 25 150 19.3 37.0 0.00 0.00 0.00 64 1015.9
20240221220025 25 158 19.3 37.0 0.00 0.00 0.00 64 1016.0
20240221215504 25 157 17.7 37.0 0.00 0.00 0.00 65 1016.1
20240221215003 25 160 16.1 35.4 0.00 0.00 0.00 66 1016.2
20240221214504 24 165 17.7 30.6 0.00 0.00 0.00 66 1016.3
20240221214004 24 163 16.1 32.2 0.00 0.00 0.00 66 1016.2
20240221213504 24 163 16.1 32.2 0.00 0.00 0.00 66 1016.3
20240221213025 24 154 12.9 25.7 0.00 0.00 0.00 67 1016.3
20240221212504 24 142 16.1 30.6 0.00 0.00 0.00 68 1016.5
20240221212025 24 151 16.1 30.6 0.00 0.00 0.00 67 1016.6
20240221211504 23 166 16.1 32.2 0.00 0.00 0.00 68 1016.7
20240221211025 23 174 17.7 35.4 0.00 0.00 0.00 68 1016.8
20240221210504 23 174 17.7 35.4 0.00 0.00 0.00 67 1017.0
20240221210004 23 167 16.1 30.6 0.00 0.00 0.00 68 1017.1
20240221205503 23 154 16.1 40.2 0.00 0.00 0.00 68 1017.2
20240221205004 23 146 17.7 40.2 0.00 0.00 0.00 70 1017.2
20240221204504 23 154 17.7 35.4 0.00 0.00 0.00 70 1017.3
20240221204004 23 167 19.3 37.0 0.00 0.00 0.00 70 1017.4
20240221203504 23 166 19.3 37.0 0.00 0.00 0.00 70 1017.5
20240221203004 22 161 19.3 37.0 0.00 0.00 0.00 71 1017.7
20240221202504 22 155 19.3 32.2 0.00 0.00 0.00 70 1017.9
20240221202004 22 146 17.7 30.6 0.00 0.00 0.00 70 1018.1
20240221201504 22 145 17.7 40.2 0.00 0.00 0.00 73 1018.3
20240221201003 22 154 17.7 40.2 0.00 0.00 0.00 72 1018.5
20240221200504 22 165 19.3 40.2 0.00 0.00 0.00 74 1018.7
20240221200003 22 169 20.9 40.2 0.00 0.00 0.00 74 1018.8
20240221195525 21 167 19.3 45.1 0.00 0.00 0.00 74 1018.8
20240221195004 21 153 19.3 45.1 0.00 0.00 0.00 75 1018.7
20240221194503 21 153 19.3 40.2 0.00 0.00 0.00 75 1018.9
20240221194025 21 159 19.3 35.4 0.00 0.00 0.00 76 1018.9
20240221193503 21 156 19.3 37.0 0.00 0.00 0.00 76 1019.1
20240221193004 21 153 19.3 38.6 0.00 0.00 0.00 77 1019.4
20240221192504 21 159 19.3 40.2 0.00 0.00 0.00 78 1019.5
20240221192003 21 162 17.7 40.2 0.00 0.00 0.00 78 1019.6
20240221191503 21 159 19.3 35.4 0.00 0.00 0.00 78 1019.7
20240221191025 21 163 20.9 37.0 0.00 0.00 0.00 78 1019.8
20240221190503 21 165 20.9 45.1 0.00 0.00 0.00 78 1020.0
20240221190004 21 165 20.9 48.3 0.00 0.00 0.00 77 1020.0
20240221185503 21 161 20.9 48.3 0.00 0.00 0.00 76 1020.0
20240221185003 21 161 20.9 40.2 0.00 0.00 0.00 76 1020.2
20240221184525 21 154 17.7 32.2 0.00 0.00 0.00 77 1020.3
20240221184003 21 150 17.7 35.4 0.00 0.00 0.00 78 1020.5
20240221183503 21 158 19.3 35.4 0.00 0.00 0.00 77 1020.5
20240221183004 21 158 19.3 35.4 0.00 0.00 0.00 78 1020.6
20240221182504 21 163 19.3 38.6 0.00 0.00 0.00 77 1020.7
20240221182003 21 158 20.9 38.6 0.00 0.00 0.00 76 1020.8
20240221181503 21 155 19.3 35.4 0.00 0.00 0.00 76 1021.0
20240221181003 21 162 20.9 37.0 0.00 0.00 0.00 76 1021.0
20240221180503 21 159 19.3 37.0 0.00 0.00 0.00 75 1021.3
20240221180004 21 168 16.1 35.4 0.00 0.00 0.00 77 1021.3
20240221175503 21 170 16.1 29.0 0.00 0.00 0.00 78 1021.3
20240221175003 21 156 16.1 30.6 0.00 0.00 0.00 78 1021.4
20240221174504 21 155 17.7 30.6 0.00 0.00 0.00 78 1021.4
20240221174003 20 161 17.7 29.0 0.00 0.00 0.00 79 1021.5
20240221173503 20 159 17.7 30.6 0.00 0.00 0.00 79 1021.7
20240221173025 20 160 16.1 32.2 0.00 0.00 0.00 79 1021.8
20240221172503 20 160 16.1 32.2 0.00 0.00 0.00 80 1021.9
20240221172004 20 164 17.7 29.0 0.00 0.00 0.00 81 1022.0
20240221171503 20 166 17.7 29.0 0.00 0.00 0.00 80 1022.1
20240221171003 20 162 17.7 32.2 0.00 0.00 0.00 81 1022.2
20240221170503 20 165 16.1 32.2 0.00 0.00 0.00 80 1022.2
20240221170003 19 165 17.7 30.6 0.00 0.00 0.00 81 1022.3
20240221165504 20 166 17.7 29.0 0.00 0.00 0.00 80 1022.3
20240221165003 20 172 19.3 37.0 0.00 0.00 0.00 80 1022.3
20240221164503 20 167 19.3 37.0 0.00 0.00 0.00 79 1022.4
20240221164004 20 156 17.7 35.4 0.00 0.00 0.00 79 1022.5
20240221163504 20 152 19.3 38.6 0.00 0.00 0.00 79 1022.6
20240221163004 20 153 20.9 38.6 0.00 0.00 0.00 78 1022.6
20240221162504 20 151 19.3 35.4 0.00 0.00 0.00 79 1022.6
20240221162004 20 149 17.7 32.2 0.00 0.00 0.00 80 1022.6
20240221161503 19 155 17.7 32.2 0.00 0.00 0.00 80 1022.8
20240221161003 19 155 19.3 32.2 0.00 0.00 0.00 80 1022.8
20240221160503 19 156 19.3 35.4 0.00 0.00 0.00 80 1022.9
20240221160024 19 162 19.3 35.4 0.00 0.00 0.00 80 1022.8
20240221155503 19 167 19.3 32.2 0.00 0.00 0.00 81 1022.8
20240221155003 18 166 19.3 32.2 0.00 0.00 0.00 81 1022.8
20240221154503 18 165 20.9 35.4 0.00 0.00 0.00 81 1022.8
20240221154003 18 167 17.7 35.4 0.00 0.00 0.00 83 1022.8
20240221153503 18 173 16.1 29.0 0.00 0.00 0.00 83 1022.8
20240221153003 18 166 19.3 37.0 0.00 0.00 0.00 85 1022.8
20240221152503 18 160 19.3 37.0 0.00 0.00 0.00 85 1022.8
20240221152003 17 163 20.9 35.4 0.00 0.00 0.00 84 1022.7
20240221151503 17 161 19.3 32.2 0.00 0.00 0.00 85 1022.7
20240221151003 17 166 17.7 32.2 0.00 0.00 0.00 86 1022.8
20240221150503 17 165 17.7 32.2 0.00 0.00 0.00 86 1022.7
20240221150003 17 166 16.1 29.0 0.00 0.00 0.00 86 1022.7
20240221145503 17 174 16.1 30.6 0.00 0.00 0.00 86 1022.7
20240221145003 17 168 16.1 30.6 0.00 0.00 0.00 87 1022.7
20240221144503 17 166 19.3 38.6 0.00 0.00 0.00 87 1022.5
20240221144003 17 164 17.7 38.6 0.00 0.00 0.00 87 1022.6
20240221143524 17 164 12.9 29.0 0.00 0.00 0.00 87 1022.5
20240221143003 17 170 12.9 29.0 0.00 0.00 0.00 87 1022.6
20240221142503 17 176 12.9 32.2 0.00 0.00 0.00 86 1022.5
20240221142003 17 174 16.1 32.2 0.00 0.00 0.00 86 1022.4
20240221141503 17 167 17.7 40.2 0.00 0.00 0.00 86 1022.3
20240221141003 17 165 17.7 40.2 0.00 0.00 0.00 86 1022.2
20240221140503 17 165 17.7 29.0 0.00 0.00 0.00 86 1022.3
20240221140003 17 164 17.7 35.4 0.00 0.00 0.00 86 1022.3
20240221135503 17 161 16.1 35.4 0.00 0.00 0.00 87 1022.2
20240221135003 17 160 11.3 20.9 0.00 0.00 0.00 87 1022.2
20240221134503 17 167 11.3 22.5 0.00 0.00 0.00 87 1022.3
20240221134003 17 173 9.7 22.5 0.00 0.00 0.00 87 1022.3
20240221133503 17 182 9.7 20.9 0.00 0.00 0.00 87 1022.3
20240221133003 17 184 11.3 25.7 0.00 0.00 0.00 87 1022.4
20240221132524 17 177 12.9 29.0 0.00 0.00 0.00 87 1022.4
20240221132003 17 168 16.1 32.2 0.00 0.00 0.00 87 1022.5
20240221131503 17 168 16.1 32.2 0.00 0.00 0.00 87 1022.5
20240221131003 17 175 12.9 27.4 0.00 0.00 0.00 87 1022.4
20240221130503 17 177 12.9 27.4 0.00 0.00 0.00 88 1022.4
20240221130003 17 170 12.9 25.7 0.00 0.00 0.00 88 1022.4
20240221125503 17 167 12.9 25.7 0.00 0.00 0.00 88 1022.4
20240221125003 17 171 11.3 25.7 0.00 0.00 0.00 87 1022.5
20240221124525 17 175 12.9 29.0 0.00 0.00 0.00 87 1022.4
20240221124004 17 181 12.9 29.0 0.00 0.00 0.00 87 1022.4
20240221123504 17 184 11.3 27.4 0.00 0.00 0.00 87 1022.4
20240221123025 17 181 11.3 27.4 0.00 0.00 0.00 87 1022.3
20240221122504 17 172 12.9 30.6 0.00 0.00 0.00 87 1022.2
20240221122004 17 167 12.9 25.7 0.00 0.00 0.00 87 1022.3
20240221121504 17 168 16.1 32.2 0.00 0.00 0.00 87 1022.2
20240221121004 17 172 19.3 38.6 0.00 0.00 0.00 87 1022.2
20240221120504 17 174 19.3 38.6 0.00 0.00 0.00 88 1022.2
20240221120004 17 172 17.7 32.2 0.00 0.00 0.00 88 1022.2
20240221115504 17 175 17.7 32.2 0.00 0.00 0.00 88 1022.2
20240221115004 17 176 16.1 29.0 0.00 0.00 0.00 88 1022.3
20240221114504 17 175 16.1 37.0 0.00 0.00 0.00 88 1022.2
20240221114004 17 174 16.1 37.0 0.00 0.00 0.00 89 1022.2
20240221113504 17 172 17.7 30.6 0.00 0.00 0.00 89 1022.2
20240221113004 17 176 17.7 35.4 0.00 0.00 0.00 89 1022.2
20240221112504 17 176 16.1 35.4 0.00 0.00 0.00 89 1022.2
20240221112004 17 172 12.9 22.5 0.00 0.00 0.00 90 1022.1
20240221111504 17 171 12.9 22.5 0.00 0.00 0.00 90 1022.0
20240221111004 17 170 12.9 25.7 0.00 0.00 0.00 90 1022.1
20240221110504 17 171 16.1 25.7 0.00 0.00 0.00 90 1022.1
20240221110004 17 172 16.1 45.1 0.00 0.00 0.00 90 1022.0
20240221105504 17 173 17.7 45.1 0.00 0.00 0.00 90 1022.0
20240221105004 17 171 16.1 32.2 0.00 0.00 0.00 90 1021.8
20240221104504 17 170 16.1 32.2 0.00 0.00 0.00 90 1021.8
20240221104004 17 176 16.1 41.8 0.00 0.00 0.00 90 1021.8
20240221103504 17 176 16.1 41.8 0.00 0.00 0.00 90 1021.9
20240221103004 16 175 20.9 32.2 0.00 0.00 0.00 91 1021.7
20240221102504 16 173 20.9 9.7 0.00 0.00 0.00 91 1021.9